Location: Unspecified
(54.1780°N, 0.0000°E)
Time: 19:00:16
(UTC+00:00)

Altair - Pass Details

Date: 24 June 2019
Orbit: 1501 x 1683 km, 47.2° (Epoch: 20 July)

Event Time Altitude Azimuth Distance (km) Brightness Sun altitude
Rises 19:40:01 0° 227° (SW) 4,696 10.2 5.8°
Reaches altitude 10° 19:43:12 10° 221° (SW) 3,738 9.7 5.4°
Maximum altitude 19:51:57 44° 154° (SSE) 2,106 8.0 4.3°
Drops below altitude 10° 20:01:02 10° 87° (E) 3,880 9.2 3.2°
Sets 20:04:24 0° 81° (E) 4,890 9.7 2.8°
